Location: Long Sault Conservation Area
(44.0496°N, 78.7419°W)
Time: 22:27:37
(UTC-04:00)

Daily predictions for brighter satellites

Satellite Brightness Start Highest point End
(mag) Time Altitude Azimuth Time Altitude Azimuth Time Altitude Azimuth
USA 229 DEB 4.2 19:23:37 10° NW 19:30:46 74° WSW 19:38:04 10° SSE
USA 229 4.2 19:23:43 10° NW 19:30:52 74° WSW 19:38:09 10° SSE
Cosmos 2181 Rocket 4.0 19:28:51 10° N 19:35:03 70° E 19:41:08 10° SSE
NOSS 3-1 (A) 4.2 19:27:48 10° NNW 19:35:10 58° NE 19:43:21 10° SE
Cosmos 1758 Rocket 3.6 19:31:44 10° N 19:36:14 75° E 19:40:43 10° SSE
Cosmos 841 Rocket 3.8 19:33:46 10° S 19:38:38 44° ESE 19:43:31 10° NNE
Cosmos 468 Rocket 4.2 19:34:34 10° SSW 19:39:46 78° WNW 19:45:05 10° NNE
Cosmos 1340 Rocket 2.9 19:36:10 10° N 19:40:15 87° W 19:44:20 10° S
Cosmos 1937 Rocket 3.7 19:36:03 10° NNW 19:41:24 84° WSW 19:46:40 10° SSE
Cosmos 1726 Rocket 3.5 19:37:50 10° S 19:42:10 72° E 19:46:30 10° NNE
Cosmos 389 Rocket 2.7 19:39:56 10° SSW 19:43:26 76° W 19:46:55 10° N
FREGAT/IRIS 3.1 19:40:35 10° SE 19:43:27 40° ENE 19:46:20 10° N
NOSS 3-1 (C) 4.1 19:36:21 10° NW 19:43:54 78° NE 19:52:19 10° SE
Cosmos 2084 3.2 19:43:53 10° SSW 19:47:56 73° SE 19:51:50 10° NE
Cosmos 2074 Rocket 4.3 19:44:11 10° SSE 19:50:02 45° E 19:55:54 10° NNE
CZ-2D R/B 4.4 19:48:46 10° ESE 19:51:50 24° ENE 19:54:55 10° NNE
Cosmos 2298 Rocket 4.5 19:47:11 10° NNW 19:52:30 67° WSW 19:57:46 10° S
Cosmos 1943 Rocket 3.3 19:48:01 10° NW 19:53:22 47° WSW 19:58:43 10° S
Cosmos 540 Rocket 4.1 19:51:11 10° SSE 19:55:38 32° E 20:00:08 10° NE
Cosmos 1709 Rocket 4.5 19:51:13 10° SSW 19:57:33 70° W 20:03:57 10° N
Cosmos 1763 Rocket 3.5 19:52:44 10° SSW 19:57:51 87° ESE 20:03:04 10° NNE
Meteor 1-24 Rocket 3.9 19:53:51 10° N 19:59:45 57° ENE 20:05:27 10° SSE
HJ-1C 3.7 19:57:46 10° SSE 20:00:59 45° ENE 20:04:13 10° N
Cosmos 2228 3.0 20:03:29 10° S 20:07:51 90° E 20:12:12 10° N
SJ-6B 2.7 20:09:43 10° SSE 20:13:42 78° ENE 20:17:38 10° N
Nadezhda 3 Rocket 4.4 20:11:07 10° N 20:17:04 41° ENE 20:22:54 10° SE
Cosmos 1953 3.6 20:17:35 20° E 20:17:35 20° E 20:20:27 10° NE
Resurs 01 Rocket 2.1 20:14:19 13° SE 20:17:58 40° ENE 20:22:07 10° N
Cosmos 1356 Rocket 3.6 20:14:59 10° NNW 20:19:18 82° W 20:23:37 10° S
GP-B 3.7 20:15:43 10° NNE 20:19:48 34° E 20:23:34 11° SSE
Meteor 2-8 Rocket 4.4 20:15:16 10° N 20:21:22 62° ENE 20:27:23 10° SSE
Cosmos 1812 Rocket 4.0 20:17:32 10° SSE 20:21:43 41° E 20:25:55 10° NNE
Thor Agena Rocket 4.0 20:18:22 10° N 20:23:36 68° WNW 20:28:44 10° SSW
H-2A R/B 3.0 20:22:01 10° S 20:25:41 66° W 20:29:27 10° NNW
Cosmos 2184 Rocket 4.0 20:21:25 10° S 20:27:43 85° E 20:34:07 10° N
Cosmos 1656 Rocket 4.3 20:22:12 10° NNW 20:27:44 57° WSW 20:33:09 10° S
Cosmos 2058 Rocket 4.0 20:23:39 10° SSW 20:27:53 50° WNW 20:32:11 10° N
Spot 2 Rocket 3.7 20:24:52 15° SE 20:28:47 48° ENE 20:33:38 10° N
BREEZE-M DEB (TANK) 2.2 20:30:44 10° NW 20:32:46 30° NNE 20:32:50 29° NNE
Cosmos 836 Rocket 4.4 20:28:05 10° SSW 20:33:21 73° ESE 20:38:37 10° NNE
Cosmos 1610 Rocket 4.5 20:27:32 10° S 20:33:50 68° E 20:40:12 10° NNE
USA 186 3.0 20:36:33 19° NNE 20:36:33 19° NNE 20:37:29 10° N
Meteor 2-19 Rocket 4.4 20:29:23 10° S 20:35:19 60° E 20:41:16 10° NNE
Cosmos 292 Rocket 4.3 20:35:05 10° SSE 20:39:29 36° ESE 20:43:55 10° NE
Milstar 3 Cent rocket 4.0 20:40:13 10° S 20:41:39 11° S 20:42:11 11° SSE
Meteor 1-22 Rocket 4.3 20:37:09 10° SSW 20:42:51 77° W 20:48:21 10° N
YAOGAN 6 4.1 20:46:00 23° NE 20:46:00 23° NE 20:48:02 10° NNE
COSMOS 2406 3.3 20:39:56 10° SSW 20:45:39 84° WNW 20:51:26 10° NNE
Okean 3 Rocket 4.1 20:42:27 10° N 20:46:39 37° ENE 20:46:57 37° E
Cosmos 1766 3.8 20:43:03 10° SSW 20:46:55 59° W 20:50:48 10° N
ISS -2.1 20:45:36 10° SSW 20:47:03 21° S 20:47:03 21° S
MOS 1-B Rocket 3.8 20:43:09 12° SSE 20:48:48 72° ENE 20:54:25 10° N
Helios 1A 4.5 20:50:32 21° NE 20:50:32 21° NE 20:52:57 10° NNE
Cosmos 1544 3.5 20:46:34 10° SSW 20:50:07 61° W 20:53:44 10° N
ERS-1 Rocket 4.4 20:52:01 20° NE 20:52:01 20° NE 20:55:15 10° NNE
Cosmos 1125 Rocket 3.7 20:47:31 10° NNW 20:52:49 74° WSW 20:57:04 16° S
Cosmos 1356 3.4 20:51:46 10° NNW 20:55:16 80° W 20:56:11 46° S
Cosmos 372 Rocket 4.1 20:52:00 10° NNW 20:57:15 76° WSW 21:00:50 21° S
BREEZE-M DEB (TANK) 3.2 20:47:11 10° WSW 20:57:57 67° SSE 20:59:22 43° E
Cosmos 2369 4.1 20:52:36 10° NNW 20:58:01 44° ENE 20:59:14 38° E
Cosmos 1674 2.6 20:54:34 10° N 20:58:04 60° ENE 20:58:04 60° ENE
Meteor 1-21 Rocket 4.2 20:54:22 10° N 21:00:07 65° ENE 21:02:33 34° SSE
Envisat 2.9 20:57:59 24° SSE 21:01:06 87° E 21:06:14 10° NNW
Cosmos 1758 3.1 20:59:36 33° S 21:01:18 77° E 21:05:18 10° NNE
Elektron 1 4.0 20:59:23 10° NW 21:02:32 61° WSW 21:02:32 61° WSW
ATLAS CENTAUR R/B 4.4 20:54:04 10° NW 21:05:51 40° WSW 21:09:50 14° S
Cosmos 962 Rocket 4.4 21:03:06 10° S 21:09:25 72° E 21:15:47 10° NNE
Cosmos 1939 Rocket 2.8 21:14:51 72° N 21:14:51 72° N 21:18:27 10° N
H-2A R/B 3.9 21:18:39 17° NE 21:18:39 17° NE 21:20:34 10° NNE
SJ-11-01 4.1 21:16:35 67° SE 21:17:08 80° ENE 21:21:53 10° N
ATLAS 2AS CENTAUR R/B 3.2 21:09:23 10° NNW 21:17:18 54° NE 21:19:38 41° E
Cosmos 1900 4.5 21:22:33 10° SW 21:27:39 77° NW 21:32:50 10° NNE
Cosmos 1076 Rocket 3.9 21:27:25 10° N 21:31:02 60° NNW 21:31:02 60° NNW
Cosmos 2278 3.5 21:27:04 10° NNW 21:32:45 77° ENE 21:33:04 74° E
Cosmos 2341 Rocket 4.3 21:39:02 10° SSW 21:45:10 64° W 21:51:23 10° N
Cosmos 2322 Rocket 4.2 21:41:59 10° N 21:44:25 15° NNE 21:44:25 15° NNE
Cosmos 1953 4.0 21:53:14 30° W 21:53:40 31° WNW 21:57:20 10° N
Resurs 01 Rocket 4.0 21:51:54 12° SW 21:54:37 20° W 21:57:55 10° NW
Cosmos 1697 Rocket 3.0 21:49:28 10° NNW 21:54:10 56° NNE 21:54:10 56° NNE
Cosmos 1656 3.8 21:50:22 10° NNW 21:55:33 74° NW 21:55:33 74° NW
Cosmos 1980 Rocket 3.2 21:51:10 10° NNW 21:55:08 36° NNE 21:55:08 36° NNE
FALCON 9 R/B 3.7 21:53:03 10° WSW 21:55:15 26° SSW 21:55:15 26° SSW
Cosmos 1959 Rocket 4.4 22:02:31 78° N 22:02:31 78° N 22:08:23 10° N
Cosmos 2366 rocket 4.1 22:09:14 68° N 22:09:14 68° N 22:14:39 10° N
Cosmos 2218 Rocket 4.1 22:12:20 72° NW 22:12:20 72° NW 22:18:12 10° N
Cosmos 2285 Rocket 4.3 22:07:47 10° SSW 22:14:08 63° WNW 22:20:34 10° NNE
ARGOS 4.2 22:24:04 41° NNW 22:24:04 41° NNW 22:27:33 10° NNW
SL-16 R/B 4.0 22:18:31 10° N 22:21:08 21° NNE 22:21:08 21° NNE
CZ-3A R/B 4.2 22:27:50 10° WNW 22:48:05 60° NNE 22:48:58 58° NE
H-2A R/B 4.2 22:59:17 21° NNW 22:59:17 21° NNW 23:01:03 10° NNW
ATLAS 2AS CENTAUR R/B 3.9 23:00:52 10° NW 23:07:04 40° W 23:07:04 40° W
Cosmos 2322 Rocket 4.5 23:24:37 10° NNW 23:26:13 20° NNW 23:26:13 20° NNW
